• în România
  • Lista ţărilor
  • Pe 7 zile
  • Temperatura apei
  • Hartă satelitară
  • Meteo pe hartă
  • Widget-uri
  • user-avatar
    Intrare

    Meteo pe oră la Guanare

    Astăzi, 28 Mai, Luni

    Timp Temperatura Precipitaţii Vânt Presiune Umiditate
    00:00 +25°C° 0,8 mm 1 m/s 742 mmHg 86%
    01:00 +25°C° 0,8 mm 1 m/s 742 mmHg 86%
    02:00 +24°C° 0,7 mm 1 m/s 742 mmHg 87%
    03:00 +24°C° 0,7 mm 1 m/s 742 mmHg 88%
    04:00 +24°C° 0,7 mm 1 m/s 742 mmHg 89%
    05:00 +25°C° 0,4 mm 1 m/s 742 mmHg 89%
    06:00 +25°C° 0,4 mm 1 m/s 743 mmHg 88%
    07:00 +26°C° 0,4 mm 1 m/s 743 mmHg 88%
    08:00 +27°C° 0,4 mm 1 m/s 743 mmHg 86%
    09:00 +28°C° 0,4 mm 1 m/s 743 mmHg 85%
    10:00 +29°C° 0,4 mm 1 m/s 743 mmHg 83%
    11:00 +30°C° 0,8 mm 1 m/s 743 mmHg 79%
    12:00 +31°C° 0,8 mm 1 m/s 742 mmHg 74%
    13:00 +32°C° 0,8 mm 1 m/s 742 mmHg 70%
    14:00 +32°C° 0,7 mm 1 m/s 741 mmHg 70%
    15:00 +31°C° 0,7 mm 1 m/s 741 mmHg 71%
    16:00 +31°C° 0,7 mm 1 m/s 740 mmHg 71%
    17:00 +30°C° 0,2 mm 1 m/s 740 mmHg 76%
    18:00 +28°C° 0,2 mm 1 m/s 741 mmHg 81%
    19:00 +26°C° 0,2 mm 1 m/s 741 mmHg 86%
    20:00 +26°C° 0,1 mm 1 m/s 742 mmHg 84%
    21:00 +26°C° 0,1 mm 1 m/s 742 mmHg 81%
    22:00 +26°C° 0,1 mm 1 m/s 743 mmHg 79%
    23:00 +25°C° 0 mm 1 m/s 742 mmHg 79%

    Mâine, 29 Mai, Marţi

    Timp Temperatura Precipitaţii Vânt Presiune Umiditate
    00:00 +25°C° 0 mm 1 m/s 742 mmHg 79%
    01:00 +25°C° 0 mm 1 m/s 742 mmHg 79%
    02:00 +25°C° 0 mm 1 m/s 742 mmHg 79%
    03:00 +25°C° 0 mm 1 m/s 742 mmHg 80%
    04:00 +25°C° 0 mm 1 m/s 741 mmHg 80%
    05:00 +26°C° 0 mm 1 m/s 742 mmHg 79%
    06:00 +27°C° 0 mm 1 m/s 742 mmHg 79%
    07:00 +28°C° 0 mm 1 m/s 743 mmHg 78%
    08:00 +29°C° 0,3 mm 1 m/s 743 mmHg 76%
    09:00 +30°C° 0,3 mm 1 m/s 743 mmHg 74%
    10:00 +31°C° 0,3 mm 2 m/s 743 mmHg 72%
    11:00 +31°C° 0,8 mm 2 m/s 743 mmHg 70%
    12:00 +32°C° 0,8 mm 2 m/s 742 mmHg 68%
    13:00 +32°C° 0,8 mm 2 m/s 742 mmHg 67%
    14:00 +32°C° 0,4 mm 1 m/s 741 mmHg 67%
    15:00 +32°C° 0,4 mm 1 m/s 741 mmHg 67%
    16:00 +32°C° 0,4 mm 1 m/s 740 mmHg 67%
    17:00 +30°C° 0,3 mm 1 m/s 740 mmHg 74%
    18:00 +28°C° 0,3 mm 1 m/s 741 mmHg 80%
    19:00 +27°C° 0,3 mm 1 m/s 741 mmHg 86%
    20:00 +26°C° 0 mm 1 m/s 742 mmHg 84%
    21:00 +26°C° 0 mm 1 m/s 742 mmHg 82%
    22:00 +26°C° 0 mm 1 m/s 743 mmHg 80%
    23:00 +25°C° 0 mm 1 m/s 742 mmHg 77%

    Poimâine, 30 Mai, Miercuri

    Timp Temperatura Precipitaţii Vânt Presiune Umiditate
    00:00 +25°C° 0 mm 1 m/s 742 mmHg 73%
    01:00 +25°C° 0 mm 1 m/s 742 mmHg 69%
    02:00 +25°C° 0 mm 1 m/s 742 mmHg 72%
    03:00 +25°C° 0 mm 1 m/s 742 mmHg 74%
    04:00 +24°C° 0 mm 1 m/s 742 mmHg 77%
    05:00 +25°C° 0 mm 1 m/s 742 mmHg 77%
    06:00 +26°C° 0 mm 1 m/s 742 mmHg 76%
    07:00 +27°C° 0 mm 1 m/s 743 mmHg 76%
    08:00 +28°C° 0,1 mm 1 m/s 743 mmHg 73%
    09:00 +30°C° 0,1 mm 1 m/s 743 mmHg 69%
    10:00 +31°C° 0,1 mm 2 m/s 743 mmHg 65%
    11:00 +32°C° 0,6 mm 2 m/s 743 mmHg 63%
    12:00 +32°C° 0,6 mm 2 m/s 742 mmHg 62%
    13:00 +34°C° 0,6 mm 2 m/s 741 mmHg 60%
    14:00 +32°C° 0,5 mm 2 m/s 741 mmHg 64%
    15:00 +32°C° 0,5 mm 2 m/s 740 mmHg 68%
    16:00 +31°C° 0,5 mm 1 m/s 740 mmHg 72%
    17:00 +29°C° 0,2 mm 1 m/s 740 mmHg 79%
    18:00 +28°C° 0,2 mm 1 m/s 740 mmHg 85%
    19:00 +24°C° 0,2 mm 0 m/s 741 mmHg 92%
    20:00 +26°C° 0 mm 1 m/s 741 mmHg 91%
    21:00 +26°C° 0 mm 1 m/s 741 mmHg 91%
    22:00 +25°C° 0 mm 1 m/s 742 mmHg 90%
    23:00 +25°C° 0 mm 1 m/s 742 mmHg 86%

    31 Mai, Joi

    Timp Temperatura Precipitaţii Vânt Presiune Umiditate
    00:00 +25°C° 0 mm 1 m/s 741 mmHg 83%
    01:00 +25°C° 0 mm 1 m/s 741 mmHg 79%
    02:00 +25°C° 0 mm 1 m/s 741 mmHg 78%
    03:00 +24°C° 0 mm 1 m/s 741 mmHg 78%
    04:00 +24°C° 0 mm 1 m/s 741 mmHg 77%
    05:00 +25°C° 0 mm 1 m/s 742 mmHg 77%
    06:00 +26°C° 0 mm 1 m/s 742 mmHg 77%
    07:00 +27°C° 0 mm 1 m/s 743 mmHg 76%
    08:00 +29°C° 0 mm 1 m/s 743 mmHg 70%
    09:00 +31°C° 0 mm 1 m/s 743 mmHg 64%
    10:00 +34°C° 0 mm 2 m/s 743 mmHg 58%
    11:00 +34°C° 0,1 mm 2 m/s 742 mmHg 56%
    12:00 +35°C° 0,1 mm 2 m/s 741 mmHg 54%
    13:00 +35°C° 0,1 mm 2 m/s 740 mmHg 53%
    14:00 +35°C° 0 mm 2 m/s 740 mmHg 56%
    15:00 +33°C° 0 mm 1 m/s 740 mmHg 59%
    16:00 +33°C° 0 mm 1 m/s 739 mmHg 62%
    17:00 +31°C° 0 mm 1 m/s 740 mmHg 69%
    18:00 +29°C° 0 mm 1 m/s 740 mmHg 76%
    19:00 +25°C° 0 mm 0 m/s 741 mmHg 83%
    20:00 +27°C° 0 mm 1 m/s 741 mmHg 81%
    21:00 +26°C° 0 mm 1 m/s 741 mmHg 80%
    22:00 +26°C° 0 mm 1 m/s 742 mmHg 79%
    23:00 +26°C° 0 mm 1 m/s 741 mmHg 74%

    1 Iunie, Vineri

    Timp Temperatura Precipitaţii Vânt Presiune Umiditate
    00:00 +26°C° 0 mm 1 m/s 741 mmHg 70%
    01:00 +26°C° 0 mm 1 m/s 741 mmHg 65%
    02:00 +26°C° 0,1 mm 1 m/s 741 mmHg 69%
    03:00 +25°C° 0,1 mm 1 m/s 741 mmHg 73%
    04:00 +25°C° 0,1 mm 1 m/s 741 mmHg 77%
    05:00 +26°C° 0,2 mm 1 m/s 742 mmHg 79%
    06:00 +26°C° 0,2 mm 1 m/s 742 mmHg 81%
    07:00 +27°C° 0,2 mm 1 m/s 743 mmHg 83%
    08:00 +28°C° 0,3 mm 1 m/s 743 mmHg 78%
    09:00 +29°C° 0,3 mm 1 m/s 743 mmHg 74%
    10:00 +31°C° 0,3 mm 1 m/s 743 mmHg 70%
    11:00 +31°C° 0,3 mm 1 m/s 742 mmHg 67%
    12:00 +32°C° 0,3 mm 1 m/s 742 mmHg 63%
    13:00 +33°C° 0,3 mm 1 m/s 741 mmHg 60%
    14:00 +32°C° 0 mm 1 m/s 741 mmHg 62%
    15:00 +32°C° 0 mm 1 m/s 740 mmHg 64%
    16:00 +31°C° 0 mm 1 m/s 740 mmHg 65%
    17:00 +30°C° 0 mm 1 m/s 740 mmHg 71%
    18:00 +28°C° 0 mm 1 m/s 741 mmHg 77%
    19:00 +25°C° 0 mm 0 m/s 741 mmHg 83%
    20:00 +26°C° 0,1 mm 1 m/s 742 mmHg 82%
    21:00 +26°C° 0,1 mm 1 m/s 742 mmHg 80%
    22:00 +26°C° 0,1 mm 1 m/s 742 mmHg 79%
    23:00 +25°C° 0,3 mm 1 m/s 742 mmHg 77%

    2 Iunie, Sâmbătă

    Timp Temperatura Precipitaţii Vânt Presiune Umiditate
    00:00 +25°C° 0,3 mm 1 m/s 741 mmHg 76%
    01:00 +25°C° 0,3 mm 1 m/s 741 mmHg 75%
    02:00 +25°C° 0,5 mm 1 m/s 741 mmHg 77%
    03:00 +24°C° 0,5 mm 1 m/s 741 mmHg 79%
    04:00 +24°C° 0,5 mm 1 m/s 741 mmHg 81%
    05:00 +25°C° 0,2 mm 1 m/s 742 mmHg 81%
    06:00 +26°C° 0,2 mm 1 m/s 742 mmHg 80%
    07:00 +27°C° 0,2 mm 1 m/s 743 mmHg 80%
    08:00 +28°C° 0,2 mm 1 m/s 743 mmHg 77%
    09:00 +29°C° 0,2 mm 1 m/s 743 mmHg 75%
    10:00 +30°C° 0,2 mm 1 m/s 743 mmHg 72%
    11:00 +31°C° 0,8 mm 1 m/s 742 mmHg 71%
    12:00 +32°C° 0,8 mm 1 m/s 741 mmHg 69%
    13:00 +32°C° 0,8 mm 1 m/s 741 mmHg 67%
    14:00 +32°C° 0,9 mm 1 m/s 740 mmHg 69%
    15:00 +32°C° 0,9 mm 1 m/s 740 mmHg 71%
    16:00 +31°C° 0,9 mm 1 m/s 740 mmHg 73%
    17:00 +30°C° 0,7 mm 1 m/s 740 mmHg 78%
    18:00 +28°C° 0,7 mm 1 m/s 741 mmHg 83%
    19:00 +27°C° 0,7 mm 1 m/s 741 mmHg 88%
    20:00 +26°C° 0,2 mm 1 m/s 742 mmHg 85%
    21:00 +26°C° 0,2 mm 1 m/s 742 mmHg 83%
    22:00 +26°C° 0,2 mm 1 m/s 742 mmHg 81%
    23:00 +26°C° 0 mm 1 m/s 742 mmHg 80%
    Arată mai mult